Theta_e
298 298 298 298 298 298 297 297 297 297 298 299 300 299 299 299 300 300 299 300 299 299 298 297 297 298 298 298 299 298 298 300 301 296 296 296 294 293 293 293 291 292 289
294 294 294 295 294 294 294 295 296 296 296 297 297 297 297 296 296 296 295 296 296 295 295 296 296 296 296 296 297 296 295 297 299 294 294 293 291 292 292 291 290 291 288
292 292 292 292 292 293 293 294 295 295 295 295 295 294 294 295 294 294 294 293 293 293 293 293 293 294 294 294 295 295 295 295 296 294 291 292 291 291 290 290 289 289 288
291 291 291 291 292 293 293 293 293 294 293 293 293 293 293 293 293 293 293 292 292 292 291 291 290 290 291 292 292 292 293 292 292 291 289 288 289 288 288 285 286 287 284
291 291 291 292 292 292 292 292 292 292 293 293 292 292 291 291 291 292 292 292 291 291 290 290 289 287 288 289 291 291 292 291 290 289 287 286 284 283 283 285 283 285 284
290 289 290 290 290 290 291 291 291 291 292 292 292 291 290 289 290 291 291 290 290 289 289 288 289 288 289 289 288 288 288 289 288 287 285 283 282 282 283 283 281 281 280
289 289 289 290 290 290 290 290 290 290 291 291 291 291 289 289 289 289 289 289 289 288 287 287 286 286 288 288 288 287 286 287 287 286 282 282 281 281 282 281 280 280 279
288 287 287 289 289 289 289 289 289 289 289 289 289 289 288 287 288 288 288 288 287 286 286 285 284 284 285 287 286 285 284 284 284 284 283 281 281 281 282 281 281 281 281
284 284 285 286 287 288 288 288 288 289 288 287 287 287 286 286 287 288 288 287 286 284 284 283 284 283 284 286 285 284 283 282 283 283 282 282 282 282 282 281 278 278 276
281 282 283 284 285 285 286 286 287 287 286 286 285 285 285 285 286 287 287 286 285 284 284 284 283 283 283 284 284 283 282 282 282 281 280 280 280 280 280 278 278 275 275
280 281 281 281 282 284 285 285 285 286 286 285 283 283 283 284 284 285 286 285 284 283 283 283 283 283 282 282 283 282 282 282 281 280 279 278 278 277 277 276 276 275 273
280 279 279 280 281 282 283 284 284 284 284 283 282 282 282 283 283 284 285 285 286 284 283 283 282 282 281 281 280 280 281 281 280 278 276 275 274 273 274 274 274 274 273
277 276 277 278 279 280 281 282 283 283 283 283 282 281 281 282 283 284 284 284 285 284 283 282 281 280 279 278 278 279 277 278 277 275 273 272 272 272 272 272 272 271 269
275 276 277 277 277 279 280 281 281 281 281 281 281 280 280 281 282 283 283 283 283 283 281 279 279 278 277 276 275 275 274 274 275 273 272 272 272 271 268 270 268 269 268
275 276 277 278 277 278 278 279 279 281 282 281 281 280 280 280 281 282 281 281 281 282 282 281 279 277 275 274 273 273 273 273 272 272 271 270 269 269 267 267 266 267 265
276 276 275 275 276 276 276 277 279 279 281 285 283 283 282 283 282 281 281 280 280 281 282 280 277 275 273 272 272 271 271 269 270 270 269 268 266 266 266 266 266 265 263
271 273 273 273 274 274 274 275 275 278 280 282 283 284 283 281 280 280 281 280 279 281 280 278 276 275 272 271 271 271 268 266 266 267 267 266 266 265 265 264 265 264 263
267 265 270 272 272 272 272 273 273 274 274 277 279 280 282 281 279 279 279 279 276 275 276 275 273 273 271 270 270 269 268 268 267 266 265 263 263 264 263 262 262 259 261
269 271 269 270 271 268 270 272 273 273 274 274 277 279 278 279 278 278 277 274 274 273 273 272 272 270 269 269 268 267 266 265 265 264 262 261 261 262 260 260 260 257 257
267 263 264 269 270 270 271 270 271 272 273 274 275 275 276 276 276 273 272 272 272 271 271 269 268 268 267 267 267 266 265 264 264 263 261 261 260 261 259 258 257 258 258
269 268 261 268 269 268 268 269 269 269 271 272 271 271 274 272 272 270 269 269 270 270 269 268 267 266 266 265 266 266 265 264 261 260 261 259 258 258 258 258 258 257 256
267 268 268 267 267 268 267 267 268 268 269 270 270 269 271 269 269 268 267 266 266 265 266 267 266 265 264 265 265 265 263 262 260 259 258 256 258 257 257 257 257 257 257
267 267 267 267 266 264 266 267 267 268 268 267 267 267 266 266 265 266 265 265 264 264 263 264 263 261 260 260 261 262 262 261 259 258 257 257 257 257 257 256 254 255 253
266 267 267 267 266 266 267 267 267 263 264 266 266 265 265 265 265 264 264 265 264 263 261 260 260 259 257 259 260 259 257 257 256 255 255 257 254 255 255 253 253 252 253
266 266 266 267 266 267 266 266 266 265 265 265 265 265 264 264 264 264 264 263 262 263 260 259 258 258 256 255 256 256 256 253 253 254 254 255 253 252 251 251 252 253 251
265 265 266 265 265 265 265 265 265 265 264 264 263 263 263 263 264 264 263 262 261 260 260 259 258 257 256 257 256 256 259 257 252 254 255 255 254 253 252 251 251 252 251
Wind_Speed
18 15 16 15 16 15 14 15 10 12 11 11 10 10 8 9 10 10 10 9 10 8 8 8 7 5 3 3 4 4 4 3 4 3 4 4 6 5 6 5 6 5 7
17 15 18 16 15 16 16 11 10 12 12 12 11 12 11 11 11 11 11 10 10 10 9 9 9 6 8 7 5 6 5 5 3 7 5 4 5 5 5 5 6 5 6
18 18 17 16 15 15 14 12 12 13 13 13 12 12 12 11 11 11 10 11 11 11 11 11 10 9 8 7 7 7 6 6 5 5 4 4 5 5 5 4 5 5 5
15 16 17 16 15 14 13 14 14 12 12 11 12 11 12 11 10 10 10 10 10 10 11 11 11 11 9 8 8 8 7 7 6 6 5 5 4 4 3 3 2 3 4
14 14 15 14 14 14 14 13 12 12 11 10 10 12 13 12 9 9 10 10 10 10 11 10 11 11 18 18 7 8 6 5 4 5 5 4 4 3 4 3 3 3 3
14 13 12 12 12 11 11 11 9 11 10 10 11 12 12 9 16 15 9 8 9 9 8 10 9 10 12 18 19 21 17 6 6 5 4 5 5 4 4 3 4 2 2
11 11 10 9 9 8 7 8 10 10 8 10 10 11 11 10 16 14 11 8 9 9 9 8 8 8 7 6 11 14 14 17 15 7 7 6 4 5 4 4 5 3 3
10 10 10 9 9 8 7 7 7 6 8 8 8 10 10 9 13 11 10 8 9 10 10 9 8 8 8 5 6 8 9 9 8 7 7 7 6 5 4 2 3 2 2
10 10 9 8 7 7 8 8 7 6 6 7 6 7 8 9 12 10 5 5 7 8 9 10 9 8 11 10 4 4 7 6 11 13 12 12 13 14 11 3 3 2 2
9 9 9 9 9 9 7 6 5 4 4 5 6 6 6 8 12 12 8 3 5 5 4 6 10 8 11 7 3 2 4 4 4 4 4 7 9 10 15 9 6 3 2
7 7 7 8 7 7 6 5 5 4 3 5 6 5 6 6 8 11 9 4 3 3 3 4 5 10 10 8 7 5 5 5 6 4 4 5 6 7 6 7 7 6 3
6 6 6 6 5 5 5 5 4 4 3 4 4 3 3 4 7 9 9 8 5 3 4 4 5 10 11 10 7 8 7 6 3 3 4 5 5 4 4 4 6 5 5
5 4 4 4 5 5 5 5 3 4 3 3 3 3 3 2 3 7 9 10 9 4 5 8 9 7 8 8 12 11 7 3 3 4 4 4 4 2 3 1 2 1 3
4 5 5 4 6 5 4 3 4 5 5 4 4 3 3 3 2 4 4 4 5 6 7 5 7 7 9 7 5 7 5 5 5 4 4 2 2 3 3 3 2 2 2
4 4 5 4 5 5 4 3 3 3 4 3 3 3 2 2 4 5 4 3 3 3 4 3 2 3 3 3 4 5 5 5 5 3 3 3 3 2 2 2 2 3 3
4 4 4 5 4 4 4 4 1 3 7 10 1 1 2 7 7 5 5 4 5 5 3 2 3 3 3 2 3 4 4 4 3 2 2 2 2 2 2 2 3 3 2
4 4 3 4 5 5 5 4 4 4 0 5 11 4 7 6 5 8 8 5 7 2 1 3 3 3 2 2 2 3 3 2 2 3 3 3 2 2 3 3 3 2 2
3 1 3 3 3 4 4 4 3 3 4 3 5 7 2 7 7 10 12 2 3 5 4 3 3 3 2 2 2 2 2 2 2 3 3 3 3 2 2 3 3 2 2
3 2 3 3 2 2 3 4 3 3 3 3 3 3 7 5 6 11 10 4 4 4 3 3 3 2 2 3 2 3 3 3 2 2 2 2 2 2 2 2 1 1 2
2 2 3 3 3 3 3 3 3 3 2 2 2 4 4 3 4 4 4 4 3 3 2 3 2 2 2 2 2 2 2 2 2 2 2 2 2 2 2 1 3 2 3
2 2 2 3 3 3 2 3 3 3 2 1 3 4 9 4 4 3 3 4 3 3 2 2 2 2 2 2 2 2 2 3 2 2 2 2 1 2 1 1 1 1 2
1 2 3 3 3 3 3 3 4 4 3 2 2 3 7 3 3 3 3 4 3 3 3 2 2 3 3 2 2 2 2 3 2 1 3 1 1 2 0 1 2 2 2
1 2 1 1 2 3 2 2 3 3 3 3 2 2 2 3 2 2 3 2 2 2 2 2 2 2 2 2 3 3 2 2 1 2 3 2 1 2 1 3 2 3 3
2 2 2 0 1 2 3 2 2 2 4 3 2 2 2 1 2 2 1 2 2 2 2 2 3 3 2 2 2 3 3 3 3 2 2 3 3 1 3 2 2 3 2
1 1 1 1 0 0 1 2 1 1 2 3 2 1 0 0 1 1 1 2 2 2 3 2 2 2 2 2 3 4 4 6 4 3 2 4 5 5 3 3 2 2 3
1 2 1 1 1 1 1 1 1 1 1 1 2 2 2 1 0 1 1 1 2 2 3 2 1 2 2 2 3 4 3 3 2 3 2 2 3 2 3 3 3 2 2
Wind_Direction
37 44 55 55 55 56 58 56 53 52 44 46 62 68 49 51 47 56 60 56 56 53 52 60 56 42 41 43 49 44 45 21 108 95 89 104 72 64 58 58 47 41 56
39 39 50 52 57 54 51 54 57 57 46 49 42 57 52 48 56 56 58 52 53 48 43 47 39 30 34 27 37 44 43 18 44 118 105 100 73 67 59 55 39 52 50
31 31 39 44 45 52 56 45 41 56 44 50 49 51 54 46 47 51 58 60 54 49 42 44 34 30 39 29 39 44 41 40 31 92 100 67 75 29 42 26 60 40 37
40 34 35 37 40 44 48 48 44 40 53 41 48 51 51 45 52 51 54 59 62 59 56 51 46 38 31 23 37 33 35 46 55 77 83 72 53 35 59 16 27 91 37
40 41 35 34 38 42 39 37 41 44 41 49 45 47 48 42 27 48 50 51 57 59 57 55 47 45 46 46 37 25 37 57 61 76 78 71 49 43 28 350 4 341 85
39 34 28 33 30 34 37 34 38 47 40 44 49 51 50 44 39 34 55 60 57 55 57 53 46 31 58 57 55 53 44 39 66 77 72 76 52 30 6 22 4 359 16
48 40 34 34 39 40 48 46 39 43 43 45 49 50 48 42 37 37 44 58 59 52 45 49 46 30 33 65 63 64 57 57 51 62 77 49 53 29 351 27 20 41 48
42 37 29 25 30 26 31 52 50 44 49 52 54 58 54 39 32 29 43 63 66 57 47 46 46 36 19 37 71 70 64 53 50 61 67 58 46 13 14 26 355 111 172
30 25 21 18 21 19 29 20 27 48 59 56 52 62 67 47 40 28 53 73 74 70 64 50 42 37 21 8 70 87 91 83 72 79 84 80 63 48 35 48 12 35 49
14 8 9 8 13 13 11 10 1 32 57 74 62 56 45 51 38 44 41 45 71 75 73 71 63 45 31 36 50 106 106 116 120 117 94 65 53 48 45 38 15 40 16
357 4 12 9 5 7 358 10 1 22 56 87 70 54 53 34 37 37 39 57 69 86 70 74 55 51 43 40 46 41 58 93 79 75 73 63 51 46 37 36 35 33 23
358 10 8 5 6 2 359 1 4 21 74 86 85 85 67 57 46 40 43 46 39 75 87 79 61 53 56 47 51 58 66 79 75 72 69 55 48 36 30 32 37 50 49
347 354 358 358 4 2 6 4 20 17 26 41 61 41 40 17 27 34 33 32 20 74 73 79 67 54 55 50 46 47 42 52 68 74 73 64 52 30 354 3 63 217 132
338 354 350 354 352 9 4 10 21 23 18 14 21 37 25 33 32 36 24 25 34 93 100 85 83 76 68 64 40 45 48 37 51 67 74 66 54 40 29 358 9 332 46
333 348 2 354 1 349 4 6 3 10 354 345 8 20 17 63 45 29 29 41 18 356 135 175 73 61 66 64 62 49 40 48 54 37 48 48 42 59 34 346 345 14 58
329 3 7 345 351 352 349 343 170 341 343 359 123 24 124 68 39 34 32 14 357 324 212 153 89 66 62 51 66 74 49 52 25 47 53 50 54 35 31 17 28 49 37
342 346 345 348 351 351 348 349 347 343 124 31 28 94 105 97 38 18 0 8 12 13 128 87 101 93 80 60 49 57 71 47 327 38 42 24 49 50 37 24 8 16 356
315 264 320 345 348 338 344 335 329 355 352 338 11 360 348 87 63 26 8 322 43 40 58 79 101 106 97 96 87 92 94 81 48 45 48 32 17 36 44 36 34 356 346
312 322 337 321 337 334 315 325 323 327 339 331 332 117 36 43 42 37 32 37 40 57 61 71 62 62 70 74 69 56 49 45 37 73 64 53 4 55 53 21 110 69 308
271 290 315 320 327 349 348 329 322 326 316 354 41 19 10 320 1 39 33 23 52 58 51 67 44 46 63 73 77 96 128 129 99 83 71 66 30 31 79 57 30 13 22
328 314 338 290 317 347 359 341 329 310 314 356 63 6 25 15 38 39 32 34 27 53 48 55 53 45 42 57 75 82 83 90 72 91 93 86 4 80 359 32 55 67 40
314 325 319 327 335 323 6 356 329 316 322 339 39 34 24 52 50 44 50 48 31 22 6 21 56 47 18 22 24 82 87 102 125 112 98 85 79 91 334 55 16 21 19
227 257 218 295 328 335 307 25 333 319 332 353 358 18 26 50 60 59 77 62 48 27 15 5 66 66 46 32 8 4 63 93 81 80 127 132 129 98 27 65 41 35 32
186 236 286 72 44 329 324 347 9 326 322 329 342 13 29 28 58 85 70 88 93 77 24 48 37 62 52 16 43 43 54 46 50 46 37 108 117 110 79 77 73 53 32
241 226 240 285 163 94 327 290 323 342 326 319 324 330 9 149 118 89 99 98 76 92 76 40 43 78 91 64 48 57 74 53 49 17 25 74 96 91 89 85 68 65 44
214 286 295 277 245 213 188 264 297 328 312 328 309 306 309 299 65 130 120 135 131 117 118 109 116 98 101 92 88 91 106 120 102 8 7 91 103 100 90 97 73 76 58